www.pogodaiklimat.ru

Погода и климат >> Архив погоды >> Антарктида >> Base Marambio


ПОГОДА в Base Marambio

  • Прогноз погоды в Base Marambio
  • Монитор погоды в Base Marambio
  • Климат города

АРХИВ ПОГОДЫ в Base Marambio

Время (UTC), дата Ветер
(напр.,м/с)
 
Видим.   Явления Облачность Т
(С)
Тd
(С)
f
(%)
Тe
(С)
Тes
(С)
Комфортность P
(гПа)
Po
(гПа)
Тmin
(С)
Tmax
(С)
R
(мм)
R24
(мм)
S
(см)
06 19.05 Ю 15 900 м метель туман ясно -11.8 -13.2 89 -25 -25 981.3 956.6
09 19.05 ЮЗ 6 7000 м дымка {метель} 4/4 240 м
[St]
-11.8 -13.2 89 -21 -21 985.8 961.0
12 19.05 С 4 6000 м дымка {метель} 8/4 90 м
[St Cs]
-11.8 -13.2 89 -18 -18 985.9 961.3 -13.1 +0.7 112
15 19.05 СЗ 10 500 м туман 10/4 120 м
[St Ac As Cs]
-5.6 -6.3 95 -16 -16 982.3 957.7
18 19.05 С 15 15 км {туман, метель} 9/3 600 м
[Sc Ac As]
-0.7 -0.8 99 -11 -11 978.1 953.7
21 19.05 С 10 200 м туман местами 10/10 60 м
[St]
-0.7 -0.8 99 -9 -9 974.5 950.2
00 20.05 СЗ 14 10 км позёмок {туман, метель} ясно -0.2 -0.5 98 -10 -10 970.3 946.1 -11.8 +0.6
03 20.05 З 24 300 м метель ясно -0.3 -0.9 96 -12 -12 971.5 947.4
06 20.05 З 24 200 м сильная метель ясно -1.7 -1.9 99 -14 -14 973.6 949.7
09 20.05 З 29 200 м метель ?/? -2.0 -2.3 98 -15 -15 976.4 952.4
12 20.05 З 18 8000 м позёмок {метель} 1/0
[Ci fib]
-1.4 -3.7 84 -12 -12 980.8 956.8 -4.1 +2.2
15 20.05 СЗ 13 10 км {метель} 5/0
[Ac trans Cs]
-2.0 -4.4 84 -12 -12 982.3 958.2
18 20.05 С 7 15 км {метель} 10/0
[As trans]
-1.9 -3.0 92 -9 -9 980.5 956.4
00 21.05 В 3 10 км 10/3 210 м
[St As op]
-3.3 -3.7 97 -8 -8 974.5 950.5 -3.4 +1.0
03 21.05 ЮВ 9 200 м слабый снег {туман} 10/10 60 м
[St]
-4.1 -4.6 96 -13 -13 972.5 948.5
06 21.05 Ю 12 200 м слабый снег {туман} 10/6 60 м
[St As op]
-9.1 -10.2 92 -20 -20 976.3 952.0
09 21.05 Ю 12 200 м слабый снег {туман} 10/6 60 м
[St As op]
-13.0 -14.5 88 -25 -25 982.3 957.6
12 21.05 Ю 3 15 км {снег, туман} 4/0
[Ac As]
-13.8 -15.4 88 -20 -20 987.2 962.2 -14.6 -3.1
15 21.05 С 3 15 км 5/1 180 м
[St Cs]
-13.0 -14.5 88 -19 -19 988.2 963.3
18 21.05 С 5 9000 м дымка 6/0
[Ac As Cs]
-11.8 -13.2 89 -20 -20 989.2 964.1
21 21.05 З 4 8000 м в посл. час туман 4/0
[Ci fib]
-5.6 -6.3 95 -12 -12 989.7 964.6
00 22.05 СЗ 2 5000 м дымка {туман} 5/0
[Cs]
-8.0 -9.0 92 -13 -13 991.3 966.1 -15.1 -4.8
03 22.05 ЮВ 4 100 м туман 8/0
[Cs]
-11.0 -12.3 90 -18 -18 991.1 965.8
06 22.05 Ю 6 100 м туман 5/0
[Cs]
-14.1 -15.8 87 -23 -23 989.4 964.1
09 22.05 Ю 12 100 м туман {метель} 5/0
[Cs]
-16.1 -18.0 85 -30 -30 986.4 961.3
12 22.05 Ю 15 100 м слабый снег {туман} 10/4 60 м
[St As op]
-16.8 -18.7 85 -32 -32 опасность
обморожения
982.9 957.8 -16.9 -8.0
15 22.05 ЮЗ 17 100 м туман {снег} 6/0
[Ac As]
-16.5 -18.4 85 -32 -32 опасность
обморожения
980.8 955.6
18 22.05 ЮЗ 17 100 м туман {снег} 8/3 180 м
[St Cs]
-18.0 -20.0 84 -34 -34 опасность
обморожения
979.8 954.4
21 22.05 З 19 100 м туман {метель} 8/4 60 м
[St Cs]
-17.8 -19.8 84 -34 -34 опасность
обморожения
978.0 952.6
00 23.05 З 21 100 м туман {метель} 10/10 60 м
[St]
-18.6 -20.7 83 -36 -36 опасность
обморожения
977.7 952.2 -19.4 -15.7
03 23.05 ЮЗ 19 100 м туман {метель} 3/3 60 м
[St]
-18.4 -20.5 83 -35 -35 опасность
обморожения
975.8 950.4
06 23.05 ЮЗ 19 100 м туман {метель} туман ясно -18.5 -20.6 83 -35 -35 опасность
обморожения
977.3 951.8
09 23.05 ЮЗ 17 100 м туман {метель} туман ясно -18.6 -20.7 83 -35 -35 опасность
обморожения
976.9 951.4
12 23.05 З 17 200 м туман {метель} 4/0
[Cs]
-18.7 -20.8 83 -35 -35 опасность
обморожения
979.3 953.7 -19.6 -17.7
15 23.05 ЮЗ 15 300 м туман {метель} 8/0
[Ac As Cs]
-18.4 -20.5 83 -34 -34 опасность
обморожения
980.6 955.0
18 23.05 ЮЗ 19 300 м туман {метель} 10/0
[Ac As Cs]
-17.6 -19.6 84 -34 -34 опасность
обморожения
981.4 955.8
21 23.05 ЮЗ 16 300 м туман {метель} 8/0
[Cs]
-16.6 -18.5 85 -32 -32 опасность
обморожения
982.4 956.8
00 24.05 ЮЗ 16 200 м туман {метель} ясно -17.0 -19.0 84 -32 -32 опасность
обморожения
983.5 957.8 -18.7 -16.5
03 24.05 ЮЗ 21 200 м туман {метель} 4/4 120 м
[St]
-17.9 -19.9 84 -35 -35 опасность
обморожения
983.3 957.7
06 24.05 ЮЗ 16 200 м туман {метель} 5/5 120 м
[St]
-22.0 -24.4 81 -39 -39 опасность
обморожения
984.6 958.6
09 24.05 Ю 15 200 м туман {метель} 3/3 120 м
[St]
-21.4 -23.8 81 -38 -38 опасность
обморожения
985.5 959.7
12 24.05 Ю 15 300 м туман {метель} 4/4 60 м
[St]
-21.6 -24.0 81 -38 -38 опасность
обморожения
986.8 960.9 -23.1 -16.8
15 24.05 Ю 15 900 м туман местами {метель} 4/3 90 м
[St Ci fib]
-22.9 -25.4 80 -40 -40 опасность
обморожения
988.1 962.0
18 24.05 Ю 15 600 м туман {метель} 8/3 60 м
[St Cs]
-23.2 -25.7 80 -40 -40 опасность
обморожения
989.7 963.4
21 24.05 Ю 15 700 м метель {туман} 4/0
[Cs]
-23.8 -26.4 79 -41 -41 опасность
обморожения
990.4 964.1
00 25.05 ЮЗ 11 5000 м позёмок {туман, метель} 3/0
[Cs]
-24.0 -26.6 79 -40 -40 опасность
обморожения
992.0 965.6 -24.7 -21.0
03 25.05 Ю 15 5000 м позёмок {метель} ясно -24.4 -27.0 79 -42 -42 опасность
обморожения
992.1 965.6
06 25.05 Ю 12 10 км позёмок {метель} ясно -25.3 -28.0 78 -42 -42 опасность
обморожения
993.6 967.0
09 25.05 Ю 10 15 км ясно -26.6 -29.4 77 -43 -43 опасность
обморожения
994.7 968.0
12 25.05 Ю 13 800 м позёмок {метель} 6/0
[Cs]
-25.5 -28.2 78 -43 -43 опасность
обморожения
995.5 968.8 -28.1 -23.3
15 25.05 Ю 12 2000 м позёмок {метель} 5/0
[Cs]
-26.1 -28.8 78 -43 -43 опасность
обморожения
996.2 969.4
18 25.05 ЮЗ 9 10 км {метель} 6/0
[Cs]
-25.0 -27.7 78 -39 -39 опасность
обморожения
996.4 969.6
21 25.05 Ю 11 9000 м дымка 5/0
[Cs]
-23.2 -25.7 80 -38 -38 опасность
обморожения
996.6 969.8
00 26.05 Ю 14 1000 м сильный позёмок {метель} 8/0
[Cs]
-22.0 -24.4 81 -38 -38 опасность
обморожения
997.2 970.6 -27.1 -21.8
03 26.05 ЮЗ 14 900 м сильная метель 6/0
[Cs]
-22.5 -25.0 80 -39 -39 опасность
обморожения
997.0 970.2

 

Местоположение метеостанции Base Marambio (Антарктида): широта -64.23 долгота -56.71 высота над уровнем моря 198 м.

В архиве по умолчанию представлена погода в Base Marambio за последнюю неделю. Архивные данные за месяц целиком и за предыдущие месяцы, начиная с января 2011 года, Вы можете получить, выбрав интересующий диапазон дат из раскрывающегося списка и нажав кнопку "Ввод!".

Внимание! Время в таблицах - всемирное. Для получения местного времени необходимо прибавить поправку, которая в Base Marambio равна 0 ч.

Смотрите также архив погоды в соседних городах и на ближайших метеорологических станциях:

Погода в Base Esperanza (Антарктида) (93 км)
Погода в Bernardo o`Higgins (Антарктида) (118 км)
Погода в Base Jubany (Антарктида) (242 км)
Погода в Base Arturo Prat (Антарктида) (243 км)
Погода в King Sejong (Антарктида) (247 км)
Погода в Great Wall (Антарктида) (251 км)
Погода в Dinamet-Uruguay (Антарктида) (252 км)
Погода в Bellingshausen (Антарктида) (252 км)
Погода в Juan Carlos I (Антарктида) (253 км)
Погода в Frei Chi-Base (Антарктида) (255 км)

Пояснения к столбцам:

Ветер - указаны скорость ветра в м/с - средняя за 10 мин, порывы в срок и между сроками (в фигурных скобках) и направление, откуда дует ветер: С - северный, СВ - северо-восточный, В - восточный, ЮВ - юго-восточный, Ю - южный, ЮЗ - юго-западный, З - западный, СЗ - северо-западный.
Видимость - горизонтальная дальность видимости в метрах или километрах. При видимости от 1 до 10 км при отсутствии осадков обычно наблюдается дымка, при ухудшении видимости до 1 км и менее - туман. В сухую погоду видимость может ухудшаться дымом, пылью или мглою.
Явления - указаны атмосферные явления, наблюдавшиеся в срок или в последний час перед сроком; фигурными скобками обозначены явления, наблюдавшиеся между сроками (за 1-3 часа до срока); квадратными скобками обозначены град или гололедные отложения с указанием их диаметра в мм.
Облачность - указаны через наклонную черту общая и нижняя облачность в баллах и высота нижней границы облаков в метрах; квадратными скобками обозначены формы облаков: Ci - перистые, Cs - перисто-слоистые, Cc - перисто-кучевые, Ac - высококучевые, As - высокослоистые, Sc - слоисто-кучевые, Ns - слоисто-дождевые, Cu - кучевые, Cb - кучево-дождевые. Подробнее классификацию облаков см. в Атласе облаков (PDF).
T - Температура воздуха - температура, измеренная на высоте 2 м над землей.
Td - Температура точки росы - температура, при понижении до которой содержащийся в воздухе водяной пар достигнет насыщения.
f - Относительная влажность воздуха - влажноcть воздуха, измеренная на высоте 2 м над землей.
Te - Эффективная температура - температура, которую ощущает одетый по сезону человек в тени. Характеристика душности погоды. При расчете учитывается влияние влажности воздуха и скорости ветра на теплоощущения человека.
Tes - Эффективная температура на солнце - температура, которую ощущает человек, с поправкой на солнечный нагрев. Характеристика знойности погоды. Зависит от высоты солнца над горизонтом, облачности и скорости ветра. Ночью, в пасмурную погоду, а также при ветре 12 м/с и более поправка равна нулю.
P - Атмосферное давление - приведенное к уровню моря атмосферное давление.
Po - Атмосферное давление - измеренное на уровне метеостанции атмосферное давление.
Tmin - Минимальная температура - минимум температуры воздуха на высоте 2 м над землей.
Tmax - Максимальная температура - максимум температуры воздуха на высоте 2 м над землей.
R - Количество осадков - Количество выпавших осадков за период времени, мм. При наведении курсора мыши на число - период времени, за который выпало указанное количество осадков.
R24 - Количество осадков - Количество выпавших осадков за 24 часа, мм.
S - Снежный покров - Высота снежного покрова, см. При наведении курсора мыши на число - состояние снежного покрова и степень покрытия местности в баллах.